Regional Weather Roundup
Issued by NWS Portland, ME

Current Version | Previous Version | Text Only | Print | Product List | Glossary Off
Versions: 1 2 3 4 5 6 7 8 9 10 11 12 13 14 15 16 17 18 19 20 21 22 23 24 25 26 27 28 29 30 31 32 33 34 35 36 37 38 39 40 41 42 43 44 45 46 47 48 49 50
573 ASUS41 KGYX 241110 RWRGYX WEATHER ROUNDUP FOR MAINE AND NEW HAMPSHIRE NATIONAL WEATHER SERVICE GRAY ME 600 AM EST THU JAN 24 2019 MEZ002-005-006-010-012-015-018-020-021-024-026-027-029-241200- MAINE CITY SKY/WX TMP DP RH WIND PRES REMARKS PORTLAND LGT RAIN 37 37 100 E6 29.74F VSB 1/2 SANFORD LGT RAIN 41 41 100 CALM 29.73F FOG BAR HARBOR LGT RAIN 41 41 100 S13 29.78F FOG WISCASSET LGT RAIN 42 42 100 CALM 29.76F FOG ROCKLAND LGT RAIN 45 44 97 SW15G22 29.77F FRYEBURG LGT RAIN 35 35 100 CALM 29.70F VSB 3/4 LEWISTONAUBURN RAIN 37 37 100 SE5 29.73F VSB 3/4 AUGUSTA LGT RAIN 39 39 100 S5 29.74F VSB 1/2 WATERVILLE FOG 37 37 100 MISG 29.70F VSB 3/4 BANGOR CLOUDY 40 39 97 S5 29.75F FOG GREENVILLE N/A 27 23 85 SE6 29.63F MILLINOCKET MIX PCPN 29 26 89 S5 29.71F HOULTON FRZ RAIN 33 32 96 S8 29.70F PRESQUE ISLE MIX PCPN 27 25 92 S5 29.69S FRENCHVILLE FRZ RAIN 23 19 85 SE9 29.63F CARIBOU FRZ RAIN 27 25 92 S6 29.67S FOG $$ NHZ002-005-008-009-011-012-014-241200- NEW HAMPSHIRE CITY SKY/WX TMP DP RH WIND PRES REMARKS ROCHESTER LGT RAIN 39 39 100 S3 29.72F VSB 1/2 NASHUA LGT RAIN 49 49 100 VRB6 29.72F FOG MANCHESTER LGT RAIN 47 46 97 S9 29.70F VSB 1/2 CONCORD LGT RAIN 37 37 100 CALM 29.71F VSB 1/2 LACONIA LGT RAIN 33 31 92 CALM 29.70F VSB 1 PLYMOUTH LGT SNOW 32 32 99 CALM 29.71F BERLIN FRZ RAIN 32 31 96 CALM 29.64F FOG WHITEFIELD LGT RAIN 33 32 96 CALM 29.64F JAFFREY LGT RAIN 49 48 97 S18G26 29.69F FOG KEENE LGT RAIN 36 36 100 CALM 29.68F FOG LEBANON LGT RAIN 35 33 92 CALM 29.64F FOG MT WASHINGTON RAIN 34 34 100 SW60G77 N/A VSB 0 WCI 16 $$ VTZ005-007-008-241200- VERMONT CITY SKY/WX TMP DP RH WIND PRES REMARKS ST JOHNSBURY N/A 39 39 100 MISG 29.62F MONTPELIER LGT RAIN 40 40 100 S10G17 29.63F BURLINGTON CLOUDY 42 39 89 S12 29.56F $$ MAZ007-012-024-CTZ003-RIZ002-NYZ038-NYZ072-241200- SOUTHERN NEW ENGLAND AND NY CITY SKY/WX TMP DP RH WIND PRES REMARKS BOSTON CLOUDY 52 48 86 S24G30 29.76F WORCESTER LGT RAIN 49 49 100 SW23G35 29.72F FOG NANTUCKET CLOUDY 46 43 89 S20 29.89F PROVIDENCE LGT RAIN 54 51 90 SW24G41 29.80F FOG HARTFORD LGT RAIN 47 47 100 S15 29.72F ALBANY LGT RAIN 45 41 86 S12 29.62F NEW YORK CITY LGT RAIN 51 48 89 S16G24 29.71F $$ ANZ081-ANZ082-ANZ150-NHZ014-MEZ023>029-241200- COASTAL MARINE OBSERVATIONS STATION/POSITION TIME TEMP WIND PRES WAVE AIR SEA DIR/SP/G HT/PER (UTC) (F) (DEG/KT/KT) (MB) (FT/S) MOUNT DESERT ROC 1100 44 190/ 27/ 29 1008.7R MATINICUS ROCK 1100 44 210/ 24/ 27 1007.8F ISLE OF SHOALS 1100 47 190/ 27/ 29 1006.7F JEFFREYS LEDGE 1008 43 N/A 6/ 7 CASHES LEDGE BUO 1050 45 40 1008.8F 7/ 8 $$ .............KEY.............. WCI - WIND CHILL TC - TEMPERATURE IN CELSIUS VSB - VISIBILITY IN MILES HX - HEAT INDEX FAIR- INDICATES FEW OR NO CLOUDS BELOW 12,000 FT, WITH NO SIGNIFICANT WEATHER AND/OR OBSTRUCTIONS TO VISIBILITY.

USA.gov is the U.S. government's official web portal to all federal, state and local government web resources and services.